Medicine Lodge, KS

7:42 PM CST on February 05, 2016 (GMT -0600)
Medicine Lodge

Weather History for KP28 - May, 2014

Change the Weather History Date:

Sunday, May 4, 2014

  Actual Average Record
Temperature  
Mean Temperature 81 °F 63 °F  
Max Temperature 103 °F 75 °F 103 °F (2014)
Min Temperature 58 °F 51 °F 32 °F (2013)
Degree Days  
Heating Degree Days 0 4  
Month to date heating degree days 22 18  
Since 1 July heating degree days 4961 4403  
Cooling Degree Days 16 2  
Month to date cooling degree days 19 7  
Year to date cooling degree days 48 31  
Growing Degree Days 30 (Base 50)    
Moisture  
Dew Point 28 °F    
Average Humidity 23    
Maximum Humidity 40    
Minimum Humidity 5    
Precipitation  
Precipitation 0.00 in 0.10 in 2.25 in (1938)
Month to date precipitation 0.00 0.42  
Year to date precipitation 2.07 6.86  
Snow  
Snow 0.00 in 0.00 in - ()
Month to date snowfall 0.0 0.0  
Since 1 July snowfall 28.5 8.5  
Snow Depth 0.00 in    
Sea Level Pressure  
Sea Level Pressure 29.68 in    
Wind  
Wind Speed 13 mph (South)    
Max Wind Speed 29 mph    
Max Gust Speed 42 mph    
T = Trace of Precipitation, MM = Missing Value Source: NWS Daily Summary

Daily Weather History Graph

Daily Weather History Graph

Search for Another Location

Airport or City:

Trip Planner

Search our weather history database for the weather conditions in past years. The results will help you decide how hot, cold, wet, or windy it might be!

Date:

Astronomy

May. 04, 2014 Rise Set
Actual Time 6:36 AM CDT 8:26 PM CDT
Civil Twilight 6:07 AM CDT 8:54 PM CDT
Nautical Twilight 5:33 AM CDT 9:29 PM CDT
Astronomical Twilight 4:57 AM CDT 10:06 PM CDT
Moon 11:01 AM CDT (5/4) 12:32 AM CDT (5/4)
Length of Visible Light 14h 47m
Length of Day
13h 50m
Waxing Crescent, 28% of the Moon is Illuminated
May 4
Waxing Crescent
May 6
First Quarter
May 14
Full
May 21
Last Quarter
May 28
New

Hourly Weather History & Observations

Time (CDT) Temp. Dew Point Humidity Pressure Visibility Wind Dir Wind Speed Gust Speed Precip Events Conditions
12:56 AM 70.0 °F 33.1 °F 26% 29.80 in - SSE 9.2 mph 17.3 mph N/A   Unknown
1:56 AM 66.0 °F 34.0 °F 30% 29.80 in - SE 8.1 mph - N/A   Unknown
2:56 AM 64.0 °F 35.1 °F 34% 29.77 in - SE 10.4 mph - N/A   Unknown
3:56 AM 60.1 °F 35.1 °F 39% 29.76 in - ESE 8.1 mph - N/A   Unknown
4:56 AM 59.0 °F 36.0 °F 42% 29.75 in - ESE 9.2 mph - N/A   Unknown
5:56 AM 57.9 °F 34.0 °F 41% 29.75 in - SE 9.2 mph - N/A   Unknown
6:56 AM 59.0 °F 33.1 °F 38% 29.75 in - SE 9.2 mph - N/A   Unknown
7:56 AM 61.0 °F 35.1 °F 38% 29.75 in - SE 5.8 mph - N/A   Unknown
8:56 AM 69.1 °F 30.9 °F 24% 29.74 in - South 6.9 mph - N/A   Unknown
9:56 AM 73.9 °F 34.0 °F 23% 29.74 in - South 9.2 mph - N/A   Unknown
10:56 AM 82.9 °F 32.0 °F 16% 29.72 in - South 10.4 mph - N/A   Unknown
11:56 AM 91.0 °F 25.0 °F 9% 29.70 in - South 17.3 mph 21.9 mph N/A   Unknown
12:56 PM 93.9 °F 25.0 °F 8% 29.68 in - SW 16.1 mph 24.2 mph N/A   Unknown
1:56 PM 98.1 °F 23.0 °F 7% 29.65 in - SW 19.6 mph 28.8 mph N/A   Unknown
2:56 PM 100.9 °F 19.9 °F 5% 29.62 in - SW 20.7 mph 26.5 mph N/A   Unknown
3:56 PM 102.0 °F 18.0 °F 5% 29.60 in - SW 16.1 mph 32.2 mph N/A   Unknown
4:56 PM 102.0 °F 17.1 °F 5% 29.57 in - SW 26.5 mph 42.6 mph N/A   Unknown
5:56 PM 99.0 °F 19.9 °F 6% 29.57 in - SSW 23.0 mph 33.4 mph N/A   Unknown
6:56 PM 97.0 °F 19.9 °F 6% 29.57 in - SSW 19.6 mph 29.9 mph N/A   Unknown
7:56 PM 91.9 °F 21.0 °F 8% 29.57 in - South 24.2 mph 31.1 mph N/A   Unknown
8:56 PM 88.0 °F 23.0 °F 9% 29.59 in - South 16.1 mph - N/A   Unknown
9:56 PM 84.9 °F 24.1 °F 11% 29.60 in - South 15.0 mph - N/A   Unknown
10:56 PM 80.1 °F 25.0 °F 13% 29.62 in - South 10.4 mph - N/A   Unknown
11:56 PM 69.1 °F 28.0 °F 22% 29.64 in - Calm Calm - N/A   Unknown